TimeAST,TemperatureF,Dew PointF,Humidity,Sea Level PressureIn,VisibilityMPH,Wind Direction,Wind SpeedMPH,Gust SpeedMPH,PrecipitationIn,Events,Conditions,WindDirDegrees,DateUTC
12:56 AM,75.9,70.0,82,29.99,10.0,SE,3.5,-,N/A,,Scattered Clouds,130,2013-02-08 04:56:00
1:56 AM,75.0,72.0,90,29.97,10.0,SE,3.5,-,0.04,,Scattered Clouds,130,2013-02-08 05:56:00
2:56 AM,75.0,71.1,87,29.95,9.0,East,8.1,-,0.33,Rain,Light Rain,100,2013-02-08 06:56:00
3:56 AM,73.9,70.0,87,29.95,7.0,East,12.7,17.3,0.00,Rain,Light Rain,90,2013-02-08 07:56:00
4:56 AM,73.0,70.0,90,29.94,10.0,SE,4.6,-,0.01,,Mostly Cloudy,140,2013-02-08 08:56:00
5:56 AM,73.9,70.0,87,29.96,10.0,Calm,Calm,-,N/A,,Scattered Clouds,0,2013-02-08 09:56:00
6:56 AM,75.0,70.0,84,29.98,10.0,East,4.6,-,0.00,Rain,Light Rain,90,2013-02-08 10:56:00
7:56 AM,73.9,71.1,91,30.00,7.0,ESE,9.2,-,0.23,Rain,Light Rain,110,2013-02-08 11:56:00
8:32 AM,73.4,69.8,88,30.02,1.5,ESE,15.0,21.9,0.08,Rain,Heavy Rain,120,2013-02-08 12:32:00
8:50 AM,71.6,69.8,94,30.01,9.0,SSE,4.6,-,0.35,Rain,Light Rain,160,2013-02-08 12:50:00
8:56 AM,73.0,70.0,90,30.02,9.0,SSE,4.6,-,0.39,Rain,Light Rain,150,2013-02-08 12:56:00
9:56 AM,80.1,73.0,79,30.03,10.0,ESE,9.2,-,0.01,,Mostly Cloudy,120,2013-02-08 13:56:00
10:56 AM,82.0,68.0,62,30.04,10.0,ESE,11.5,-,N/A,,Mostly Cloudy,110,2013-02-08 14:56:00
11:56 AM,82.9,70.0,65,30.01,10.0,ENE,16.1,-,N/A,,Scattered Clouds,70,2013-02-08 15:56:00
12:56 PM,82.9,69.1,63,29.99,10.0,ENE,18.4,25.3,N/A,,Scattered Clouds,70,2013-02-08 16:56:00
1:56 PM,82.0,70.0,67,29.98,10.0,East,17.3,24.2,N/A,,Scattered Clouds,80,2013-02-08 17:56:00
2:56 PM,82.0,69.1,65,29.96,10.0,Variable,4.6,16.1,N/A,,Scattered Clouds,0,2013-02-08 18:56:00
3:00 PM,82.4,69.8,66,29.96,10.0,Variable,5.8,-,N/A,,Scattered Clouds,0,2013-02-08 19:00:00
3:56 PM,82.0,66.9,60,29.95,10.0,ENE,12.7,-,N/A,,Scattered Clouds,70,2013-02-08 19:56:00
4:56 PM,81.0,66.9,62,29.96,10.0,East,16.1,-,N/A,,Scattered Clouds,80,2013-02-08 20:56:00
5:56 PM,79.0,68.0,69,29.97,10.0,East,11.5,-,N/A,,Scattered Clouds,80,2013-02-08 21:56:00
6:56 PM,75.9,68.0,76,29.97,10.0,East,9.2,-,N/A,,Scattered Clouds,80,2013-02-08 22:56:00
7:56 PM,77.0,68.0,74,29.99,10.0,East,8.1,-,N/A,,Partly Cloudy,100,2013-02-08 23:56:00
8:56 PM,77.0,69.1,76,30.01,10.0,ESE,3.5,-,N/A,,Scattered Clouds,110,2013-02-09 00:56:00
9:56 PM,75.0,69.1,82,30.02,10.0,East,3.5,-,N/A,,Partly Cloudy,90,2013-02-09 01:56:00
10:56 PM,73.9,69.1,85,30.02,10.0,Calm,Calm,-,N/A,,Scattered Clouds,0,2013-02-09 02:56:00
11:56 PM,75.0,68.0,79,30.02,10.0,Calm,Calm,-,N/A,,Partly Cloudy,0,2013-02-09 03:56:00